OBJECT L, 63992

Orbit data source: Space-Track

You're viewing an Uncataloged Satellite

Recently launched and/or uncataloged satellites may have evolving metadata. Metadata may include but not limited to: Owner, Maufacturer, Bus, Motor, and Mission.

OBJECT L, 63992 is a Chinese satellite in SSO that was launched on Wed, 14 May 2025 UTC via a CHANG ZHENG 2D launch vehicle from the Jiuquan Satellite Launch Center, China (JSC). Unknown objects in Earth's orbit typically refer to objects detected orbiting the Earth but have not yet been identified or cataloged. These objects could be anything from previously untracked satellites, spent rocket stages, debris from satellite collisions, or even natural meteoroids temporarily captured by Earth's gravity.

Loading next visibility...
Identifier
63992, 2025-100L
Orbit
SSO
Country
Flag of CNCN / PRC
Related business
None
Manufacturer
Unknown
Mission
Operational Commercial Technology
Bus & Motor
Unknown
Mass
Unknown
Launch date (UTC)
2025-05-14 (1 year ago)
Launch vehicle
CHANG ZHENG 2D
Launch site
Jiuquan Satellite Launch Center, China (JSC)
Object type
Unknown
Shape & HBR
Box + 2 Pan, 0.9 m
Radar Cross Section
0.135 m², Large (>1 m²)

Expand to show TLE details & history
Last TLE update: 11 hours ago

TLE from 11 hours ago
0 OBJECT L
1 63992U 25100L   26206.62311619  .00014027  00000-0  63606-3 0  9990
2 63992  97.3653 278.6805 0010064 158.0498 202.1171 15.20896506 66453
Epoch: 2026-07-25T14:57Z
TLE epoch observation values (Epoch: 2026-07-25T14:57:17.238Z)
Latitude
-0.00002°
Longitude
111.02593°
Altitude
512.646 km
Speed
7.604 km/s
True Right ascension
18h 34m 43s
True Declination
0° 00' 00"
Sunlit
Object was in full shadow at epoch
Visualization orbit readout
Latitude
Unknown
Longitude
Unknown
Altitude
Unknown
Speed
Unknown
Apparent Right ascension
Unknown
Apparent Declination
Unknown
Sunlit
N/A
Visualization observer readout
Local Sidereal Time
15:19:53
Azimuth
Unknown
Elevation
Unknown
Doppler factor
Unknown
Orbital elements
Apogee altitude
507.02 km
Perigee altitude
493.176 km
Semi-major axis
6,878.235 km
Eccentricity
0.00101
Inclination
97.3653°
RAAN
278.6805°
Arg. of periapsis
158.0498°
True anomaly
202.07373°
Mean anomaly
202.1171°
Eccentric anomaly
202.09541°
Mean motion
3.80476 °/min
Orbital period
94.62 mins
BSTAR
0.00063606
Loading maneuver chart data...
Computing Atmospheric mass density...
Loading historical data...
Loading historical data...
Loading historical data...
Loading historical data...
Loading historical data...
Loading historical data...
Loading historical data...

Documentation

Showing up to 5 results
|